This is the latest recevied weather packets stored in our database for station/object KC5TIL-3. If no packets are shown the sender has not sent any weather packets the latest 10 day(s).
| Time | Temp. | Humidity | Pressure | Rain* | Wind** | Luminosity | Snow |
|---|---|---|---|---|---|---|---|
| 1787364615 | 33.89° C | 17% | 1011.8 hPa | 0 mm | 3.13 m/s, 119° | - | - |
| 1787364317 | 33.89° C | 17% | 1011.8 hPa | 0 mm | 2.24 m/s, 122° | - | - |
| 1787364013 | 34.44° C | 17% | 1011.8 hPa | 0 mm | 2.24 m/s, 110° | - | - |
| 1787363707 | 34.44° C | 16% | 1011.8 hPa | 0 mm | 3.13 m/s, 113° | - | - |
| 1787363409 | 34.44° C | 16% | 1011.8 hPa | 0 mm | 2.24 m/s, 122° | - | - |
| 1787363111 | 34.44° C | 16% | 1010.8 hPa | 0 mm | 2.68 m/s, 111° | - | - |
| 1787362809 | 35° C | 16% | 1010.8 hPa | 0 mm | 3.13 m/s, 116° | - | - |
| 1787362511 | 35° C | 16% | 1010.8 hPa | 0 mm | 3.13 m/s, 120° | - | - |
| 1787362213 | 35° C | 16% | 1011.8 hPa | 0 mm | 3.58 m/s, 112° | - | - |
| 1787361912 | 35° C | 16% | 1011.8 hPa | 0 mm | 3.13 m/s, 108° | - | - |
| 1787361613 | 35° C | 16% | 1011.8 hPa | 0 mm | 3.13 m/s, 112° | - | - |
| 1787361315 | 35° C | 16% | 1011.8 hPa | 0 mm | 3.58 m/s, 122° | - | - |
| 1787361014 | 35° C | 16% | 1011.8 hPa | 0 mm | 4.47 m/s, 112° | - | - |
| 1787360716 | 35° C | 16% | 1011.8 hPa | 0 mm | 3.58 m/s, 128° | - | - |
| 1787360417 | 35° C | 16% | 1011.8 hPa | 0 mm | 4.02 m/s, 108° | - | - |
| 1787360116 | 35° C | 16% | 1011.8 hPa | 0 mm | 3.58 m/s, 92° | - | - |
| 1787359818 | 35.56° C | 16% | 1011.8 hPa | 0 mm | 3.13 m/s, 113° | - | - |
| 1787359520 | 35.56° C | 16% | 1010.8 hPa | 0 mm | 3.58 m/s, 105° | - | - |
| 1787359218 | 35.56° C | 16% | 1010.8 hPa | 0 mm | 4.47 m/s, 114° | - | - |
| 1787358915 | 35.56° C | 16% | 1010.8 hPa | 0 mm | 4.02 m/s, 112° | - | - |
| 1787358613 | 35.56° C | 16% | 1011.8 hPa | 0 mm | 3.13 m/s, 130° | - | - |
| 1787358311 | 36.11° C | 16% | 1011.8 hPa | 0 mm | 2.68 m/s, 117° | - | - |
| 1787358013 | 36.11° C | 16% | 1011.8 hPa | 0 mm | 3.13 m/s, 112° | - | - |
| 1787357715 | 36.11° C | 16% | 1011.8 hPa | 0 mm | 3.13 m/s, 97° | - | - |
| 1787357414 | 36.11° C | 16% | 1011.8 hPa | 0 mm | 3.58 m/s, 130° | - | - |
* Rain latest hour (hover to see other rain measurements)
** Current wind speed in m/s (hover to see current wind gust speed)